Location: Brotuna
(46.2000°N, 22.6000°E)
Time: 08:59:40
(UTC+00:00)

ATLAS 2AS CENTAUR R/B - Pass Details

Date: 09 April 2020
Orbit: 929 x 1283 km, 63.7° (Epoch: 21 May)

Event Time Altitude Azimuth Distance (km) Brightness Sun altitude
Rises 18:07:57 0° 320° (NW) 4,173 7.1 -10.5°
Reaches altitude 10° 18:10:49 10° 318° (NW) 3,164 6.3 -10.9°
Maximum altitude 18:18:20 70° 238° (WSW) 1,209 3.1 -12.1°
Drops below altitude 10° 18:25:12 10° 156° (SSE) 2,893 4.5 -13.2°
Enters shadow 18:25:33 - 155° (SSE) 3,016 4.6 -13.2°
